User: anonymous   Login
Location: Brunnen
(48.6541°N, 10.9920°E)
Time: 13:18:50
(UTC+00:00)
Language:

STARLINK-1130 (DARKSAT) - Orbit

View from above orbital plane
View from above orbital plane
View from above satellite
View from above satellite

Ground track
Ground track

The orbit data is extracted from the following two-line orbital elements,

1 44932U 20001U   20218.91667824 -.00023022  00000-0 -15653-2 0  9994
2 44932  53.0006 152.4947 0001475  88.4579 236.5580 15.05596309 33343
Epoch (UTC): 05 August 2020 22:00:01
Eccentricity: 0.0001475
inclination: 53.0006°
perigee height: 548 km
apogee height: 551 km
right ascension of ascending node: 152.4947°
argument of perigee: 88.4579°
revolutions per day: 15.05596309
mean anomaly at epoch: 236.5580°
orbit number at epoch: 3334

The dashed part of the orbit path shows where the satellite is in the earth's shadow,  

DLR